STARLINK-32385

Last updated on Mon Oct 14 2024 00:02:03 GMT+0000 (Coordinated Universal Time)

1 61068U 24164U 24287.51088871 .00009787 00000+0 25449-3 0 9996 2 61068 53.1608 319.1689 0001536 57.6414 302.4740 15.39601283 4939
UTC large
Height (km)
Speed (km/s)
/
Latitude / Longitude
Inclination (degrees)
Orbital Period (minutes)
Azimuth
Elevation
Range (km)
Doppler Factor

Next 0 passes for location: London (51.5072 / 0.1276)

Sorry there are no passes over London.